Flag for Germany Weather past 2 weeks in Warburg, North Rhine-Westphalia, Germany

Now
46 °F

Partly cloudy.


Feels Like: 39 °F
Forecast: 40 / 49 °F
Wind: 20 mph from West

Location: Kassel / Calden

Current Time: Oct 22, 2014 at 12:11:50 AM

Latest Report: Oct 21, 2014 at 9:50 PM


Visibility: N/A

Pressure: 29.59 "Hg

Humidity: 82%

Dew point: 41 °F

Location of WarburgLocation

Historic Weather in Warburg — Graph

°F

Warburg temperature yesterday

Maximum temperature yesterday: 55 °F (at 3:50 PM)
Minimum temperature yesterday: 46 °F (at 9:20 PM)
Average temperature yesterday: 52 °F

Past Weeks' High & Low Weather Summary

 TemperatureHumidityPressure
High68 °F (Oct 19, 2:50 PM)100% (Oct 7, 8:20 AM)30.18 "Hg (Oct 7, 8:20 AM)
Low46 °F (Oct 12, 6:50 AM)59% (Oct 15, 3:20 PM)29.47 "Hg (Oct 21, 5:50 PM)
Average57 °F85%29.85 "Hg
* Reported Oct 6 9:20 PM — Oct 21 9:50 PM, Warburg, Weather by CustomWeather, © 2014

Note: Actual official high and low records may vary slightly from our data, if they occured in-between our weather recording intervals... More about our weather records

Advertising

Warburg weather history for previous 24 hours

 ConditionsComfort  
Time TempWeatherWind HumidityBarometerVisibility
9:50 PM
Oct 21
46 °FPartly cloudy.20 mph82%29.59 "HgN/A
9:20 PM46 °FPartly cloudy.23 mph82%29.56 "HgN/A
8:50 PM50 °FMostly cloudy.22 mph82%29.53 "HgN/A
8:20 PM50 °FLight rain. Mostly cloudy.18 mph82%29.53 "HgN/A
7:50 PM50 °FLight rain. Passing clouds.15 mph88%29.53 "HgN/A
7:20 PM50 °FPassing clouds.13 mph88%29.50 "HgN/A
6:50 PM52 °FRain. Mostly cloudy.23 mph94%29.50 "Hg4 mi
6:20 PM52 °FLight rain. Mostly cloudy.16 mph88%29.47 "HgN/A
5:50 PM54 °FMostly cloudy.16 mph82%29.47 "HgN/A
5:20 PM54 °FBroken clouds.16 mph82%29.50 "HgN/A
4:50 PM54 °FPartly sunny.18 mph77%29.53 "HgN/A
4:20 PM54 °FBroken clouds.21 mph77%29.53 "HgN/A
3:50 PM55 °FPartly sunny.18 mph72%29.56 "HgN/A
3:20 PM54 °FLight rain. Partly sunny.18 mph77%29.59 "HgN/A
2:50 PM54 °FPartly sunny.16 mph77%29.62 "HgN/A
2:20 PM54 °FPartly sunny.13 mph77%29.65 "HgN/A
1:50 PM54 °FPartly sunny.13 mph77%29.65 "HgN/A
1:20 PM54 °FLight rain. Partly sunny.12 mph82%29.68 "HgN/A
12:50 PM54 °FPartly sunny.14 mph77%29.68 "HgN/A
12:20 PM54 °FPartly sunny.13 mph77%29.71 "HgN/A
11:50 AM52 °FBroken clouds.13 mph82%29.74 "HgN/A
11:20 AM52 °FPartly sunny.12 mph82%29.77 "HgN/A
10:50 AM52 °FPartly sunny.15 mph82%29.77 "HgN/A
10:20 AM52 °FPartly sunny.16 mph82%29.77 "HgN/A
9:50 AM52 °FPartly sunny.16 mph82%29.77 "HgN/A
9:20 AM52 °FPartly sunny.12 mph82%29.80 "HgN/A
8:50 AM52 °FPassing clouds.10 mph82%29.80 "HgN/A
8:20 AM52 °FPassing clouds.9 mph82%29.80 "HgN/A
7:50 AM52 °FPassing clouds.7 mph82%29.83 "HgN/A
7:20 AM52 °FPassing clouds.9 mph82%29.83 "HgN/A
6:50 AM52 °FPassing clouds.9 mph82%29.83 "HgN/A
6:20 AM52 °FPassing clouds.7 mph88%29.86 "HgN/A
5:50 AM52 °FPassing clouds.7 mph88%29.86 "HgN/A
Weather by CustomWeather, © 2014

See weather overviewHow to use our weather pages